QTR57 OTHH-EDDM

Flight info

Callsign QTR57
Flight time 5h 59m
Altitude 40000
Route HH602 DCT KIVOD DCT HH911 DCT LAGMA DCT KATOV DCT MURKI DCT HSA DCT ORNIL DCT MISEK DCT KUPTI DCT MIVOR DCT ASTIS DCT BEKVA DCT TODNI DCT BERTA DCT VERDA DCT KIRDI DCT DM449 DCT NELBI DCT DM080 DCT DM084
Aircraft B789/H-SDE1E2E3FGHIJ2J3J4J5M1RWXY/LB1D1

Departure

Time 2026-05-06 13:24
Airport Hamad International Airport (OTHH)

Arrival

Time 2026-05-06 19:23
Airport Munich Airport (EDDM)
Time Latitude Longitude Altitude Speed Heading
2026-05-06 13:07 25.26345 51.61663 35 ft 0 kts 158°
2026-05-06 13:14 25.26346 51.61662 35 ft 2 kts 158°
2026-05-06 13:14 25.26356 51.61658 55 ft 2 kts 157°
2026-05-06 13:15 25.26371 51.61651 50 ft 2 kts 156°
2026-05-06 13:15 25.26386 51.61643 29 ft 2 kts 153°
2026-05-06 13:15 25.26400 51.61634 33 ft 2 kts 148°
2026-05-06 13:15 25.26413 51.61623 33 ft 2 kts 138°
2026-05-06 13:16 25.26423 51.61609 31 ft 2 kts 110°
2026-05-06 13:16 25.26423 51.61593 33 ft 1 kts 75°
2026-05-06 13:16 25.26422 51.61590 33 ft 0 kts 72°
2026-05-06 13:17 25.26423 51.61590 33 ft 0 kts 72°
2026-05-06 13:18 25.26422 51.61590 33 ft 0 kts 72°
2026-05-06 13:18 25.26423 51.61592 33 ft 1 kts 69°
2026-05-06 13:18 25.26425 51.61596 33 ft 1 kts 68°
2026-05-06 13:19 25.26433 51.61617 32 ft 5 kts 67°
2026-05-06 13:19 25.26454 51.61675 35 ft 11 kts 67°
2026-05-06 13:19 25.26486 51.61763 35 ft 13 kts 69°
2026-05-06 13:19 25.26518 51.61851 35 ft 12 kts 68°
2026-05-06 13:20 25.26551 51.61941 34 ft 13 kts 68°
2026-05-06 13:20 25.26549 51.62025 32 ft 10 kts 133°
2026-05-06 13:20 25.26490 51.62058 34 ft 10 kts 158°
2026-05-06 13:20 25.26421 51.62088 34 ft 13 kts 158°
2026-05-06 13:21 25.26320 51.62132 34 ft 18 kts 158°
2026-05-06 13:21 25.26204 51.62184 35 ft 18 kts 158°
2026-05-06 13:21 25.26090 51.62234 35 ft 18 kts 158°
2026-05-06 13:21 25.25965 51.62290 35 ft 21 kts 158°
2026-05-06 13:22 25.25822 51.62355 34 ft 24 kts 157°
2026-05-06 13:22 25.25661 51.62430 34 ft 26 kts 161°
2026-05-06 13:22 25.25535 51.62485 34 ft 17 kts 140°
2026-05-06 13:22 25.25539 51.62596 32 ft 17 kts 50°
2026-05-06 13:23 25.25644 51.62618 32 ft 17 kts 352°
2026-05-06 13:23 25.25791 51.62570 31 ft 37 kts 337°
2026-05-06 13:23 25.26284 51.62353 33 ft 115 kts 338°
2026-05-06 13:23 25.27255 51.61935 36 ft 182 kts 340°
2026-05-06 13:24 25.28456 51.61444 816 ft 175 kts 342°
2026-05-06 13:24 25.29621 51.60918 1459 ft 190 kts 336°
2026-05-06 13:24 25.30781 51.60091 1929 ft 214 kts 314°
2026-05-06 13:24 25.31253 51.58460 2315 ft 243 kts 268°
2026-05-06 13:25 25.30604 51.56659 2711 ft 272 kts 229°
2026-05-06 13:25 25.28980 51.55564 3457 ft 277 kts 188°
2026-05-06 13:25 25.27089 51.55728 4462 ft 277 kts 154°
2026-05-06 13:25 25.25609 51.57030 5372 ft 275 kts 122°
2026-05-06 13:26 25.24652 51.58872 6283 ft 280 kts 116°
2026-05-06 13:26 25.23659 51.60742 7194 ft 285 kts 122°
2026-05-06 13:26 25.22460 51.62506 8124 ft 290 kts 130°
2026-05-06 13:26 25.21028 51.64108 9014 ft 296 kts 139°
2026-05-06 13:27 25.19355 51.65475 9871 ft 303 kts 149°
2026-05-06 13:27 25.17380 51.66499 10287 ft 327 kts 159°
2026-05-06 13:27 25.15141 51.67354 10553 ft 353 kts 162°
2026-05-06 13:27 25.12731 51.68249 10739 ft 379 kts 159°
2026-05-06 13:28 25.10235 51.69362 11254 ft 390 kts 156°
2026-05-06 13:28 25.07728 51.70536 12060 ft 394 kts 158°
2026-05-06 13:28 25.05093 51.71378 12805 ft 398 kts 174°
2026-05-06 13:28 25.02328 51.71254 13620 ft 400 kts 193°
2026-05-06 13:29 24.99725 51.70199 14348 ft 401 kts 208°
2026-05-06 13:29 24.97263 51.68712 15080 ft 404 kts 210°
2026-05-06 13:29 24.94816 51.67156 15771 ft 409 kts 212°
2026-05-06 13:29 24.92572 51.65233 16456 ft 411 kts 228°
2026-05-06 13:30 24.90903 51.62684 17152 ft 413 kts 244°
2026-05-06 13:30 24.89764 51.59771 17747 ft 417 kts 248°
2026-05-06 13:30 24.88675 51.56800 18376 ft 420 kts 249°
2026-05-06 13:30 24.87766 51.53746 18979 ft 420 kts 260°
2026-05-06 13:31 24.87562 51.50592 19584 ft 422 kts 274°
2026-05-06 13:31 24.88031 51.47413 20208 ft 422 kts 282°
2026-05-06 13:31 24.88695 51.44228 20658 ft 428 kts 283°
2026-05-06 13:31 24.89391 51.41048 21309 ft 428 kts 283°
2026-05-06 13:32 24.90059 51.37835 21806 ft 432 kts 282°
2026-05-06 13:32 24.90711 51.34595 22356 ft 434 kts 282°
2026-05-06 13:32 24.91378 51.31342 22844 ft 437 kts 282°
2026-05-06 13:32 24.92062 51.28070 23345 ft 439 kts 282°
2026-05-06 13:33 24.92744 51.24779 23750 ft 442 kts 282°
2026-05-06 13:33 24.93419 51.21477 24169 ft 443 kts 281°
2026-05-06 13:33 24.94098 51.18161 24588 ft 445 kts 281°
2026-05-06 13:33 24.94784 51.14830 24989 ft 446 kts 281°
2026-05-06 13:34 24.95470 51.11489 25381 ft 448 kts 281°
2026-05-06 13:34 24.96319 51.08179 25730 ft 452 kts 290°
2026-05-06 13:34 24.97812 51.05116 26094 ft 458 kts 303°
2026-05-06 13:34 24.99762 51.02321 26394 ft 461 kts 303°
2026-05-06 13:35 25.01633 50.99444 26783 ft 461 kts 301°
2026-05-06 13:35 25.03384 50.96481 27127 ft 462 kts 298°
2026-05-06 13:35 25.05018 50.93427 27468 ft 463 kts 296°
2026-05-06 13:35 25.06527 50.90291 27793 ft 463 kts 293°
2026-05-06 13:36 25.07910 50.87079 28121 ft 464 kts 290°
2026-05-06 13:36 25.09164 50.83797 28398 ft 465 kts 288°
2026-05-06 13:36 25.10286 50.80447 28708 ft 466 kts 285°
2026-05-06 13:36 25.11272 50.77042 29010 ft 466 kts 282°
2026-05-06 13:37 25.12046 50.73620 29265 ft 466 kts 279°
2026-05-06 13:37 25.12679 50.70113 29553 ft 466 kts 276°
2026-05-06 13:37 25.13132 50.66567 29822 ft 467 kts 274°
2026-05-06 13:37 25.13438 50.63044 30041 ft 467 kts 271°
2026-05-06 13:38 25.13604 50.59461 30269 ft 468 kts 269°
2026-05-06 13:38 25.13625 50.55869 30491 ft 468 kts 266°
2026-05-06 13:38 25.13503 50.52281 30705 ft 468 kts 264°
2026-05-06 13:38 25.13236 50.48701 30917 ft 468 kts 262°
2026-05-06 13:39 25.12828 50.45144 31221 ft 466 kts 260°
2026-05-06 13:39 25.12345 50.41614 31544 ft 464 kts 260°
2026-05-06 13:39 25.11866 50.38088 31835 ft 463 kts 260°
2026-05-06 13:39 25.11429 50.34571 32153 ft 462 kts 261°
2026-05-06 13:40 25.11051 50.31057 32474 ft 460 kts 262°
2026-05-06 13:40 25.10740 50.27547 32801 ft 459 kts 263°
2026-05-06 13:40 25.10501 50.24041 33101 ft 458 kts 265°
2026-05-06 13:40 25.10337 50.20537 33420 ft 456 kts 266°
2026-05-06 13:41 25.10250 50.17046 33706 ft 456 kts 267°
2026-05-06 13:41 25.10244 50.13548 33966 ft 455 kts 269°
2026-05-06 13:41 25.10321 50.10056 34209 ft 455 kts 270°
2026-05-06 13:41 25.10484 50.06576 34446 ft 454 kts 271°
2026-05-06 13:42 25.10737 50.03099 34680 ft 454 kts 273°
2026-05-06 13:42 25.11084 49.99638 34920 ft 454 kts 275°
2026-05-06 13:42 25.11528 49.96192 35158 ft 454 kts 276°
2026-05-06 13:42 25.12075 49.92757 35363 ft 454 kts 278°
2026-05-06 13:43 25.12730 49.89342 35581 ft 455 kts 279°
2026-05-06 13:43 25.13497 49.85955 35842 ft 454 kts 281°
2026-05-06 13:43 25.14379 49.82610 36079 ft 455 kts 283°
2026-05-06 13:43 25.15388 49.79297 36284 ft 456 kts 285°
2026-05-06 13:44 25.16527 49.76030 36480 ft 457 kts 288°
2026-05-06 13:44 25.17807 49.72814 36699 ft 458 kts 290°
2026-05-06 13:44 25.19174 49.69638 36901 ft 458 kts 290°
2026-05-06 13:44 25.20556 49.66473 37066 ft 458 kts 291°
2026-05-06 13:45 25.22055 49.63362 37256 ft 460 kts 295°
2026-05-06 13:45 25.24538 49.56965 37531 ft 450 kts 281°
2026-05-06 13:45 25.25390 49.53639 37700 ft 450 kts 282°
2026-05-06 13:46 25.26352 49.50353 38037 ft 449 kts 285°
2026-05-06 13:46 25.27529 49.47158 38260 ft 451 kts 290°
2026-05-06 13:46 25.28960 49.44060 38392 ft 454 kts 292°
2026-05-06 13:46 25.30449 49.40992 38528 ft 453 kts 291°
2026-05-06 13:47 25.31831 49.37874 38695 ft 449 kts 287°
2026-05-06 13:47 25.32938 49.34663 38802 ft 446 kts 283°
2026-05-06 13:47 25.33919 49.31461 38909 ft 446 kts 284°
2026-05-06 13:47 25.35024 49.28252 39068 ft 447 kts 287°
2026-05-06 13:48 25.36228 49.25083 39204 ft 447 kts 287°
2026-05-06 13:48 25.37389 49.21901 39320 ft 446 kts 285°
2026-05-06 13:48 25.38488 49.18699 39465 ft 445 kts 285°
2026-05-06 13:48 25.39595 49.15511 39577 ft 445 kts 285°
2026-05-06 13:49 25.41881 49.09136 39741 ft 446 kts 285°
2026-05-06 13:49 25.44129 49.02734 39845 ft 448 kts 285°
2026-05-06 13:50 25.46404 48.96306 39845 ft 448 kts 285°
2026-05-06 13:50 25.48657 48.89902 39852 ft 446 kts 285°
2026-05-06 13:51 25.50906 48.83509 39867 ft 445 kts 285°
2026-05-06 13:51 25.53145 48.77133 39860 ft 443 kts 285°
2026-05-06 13:52 25.55373 48.70774 39858 ft 443 kts 285°
2026-05-06 13:52 25.57604 48.64400 39870 ft 445 kts 285°
2026-05-06 13:53 25.59840 48.58000 39877 ft 446 kts 285°
2026-05-06 13:53 25.62083 48.51573 39895 ft 448 kts 285°
2026-05-06 13:54 25.64318 48.45158 39885 ft 444 kts 285°
2026-05-06 13:54 25.66529 48.38795 39884 ft 441 kts 285°
2026-05-06 13:55 25.68732 48.32450 39882 ft 441 kts 285°
2026-05-06 13:55 25.70936 48.26093 39883 ft 442 kts 285°
2026-05-06 13:56 25.73011 48.20096 39886 ft 442 kts 285°
2026-05-06 13:56 25.75212 48.13727 39897 ft 441 kts 284°
2026-05-06 13:57 25.77386 48.07424 39898 ft 440 kts 284°
2026-05-06 13:57 25.79569 48.01084 39901 ft 440 kts 284°
2026-05-06 13:58 25.81746 47.94753 39902 ft 439 kts 284°
2026-05-06 13:58 25.83919 47.88422 39901 ft 438 kts 284°
2026-05-06 13:59 25.86086 47.82101 39912 ft 438 kts 284°
2026-05-06 13:59 25.88243 47.75796 39914 ft 437 kts 284°
2026-05-06 14:00 25.90398 47.69484 39914 ft 438 kts 284°
2026-05-06 14:00 25.92557 47.63157 39919 ft 438 kts 284°
2026-05-06 14:01 25.94352 47.57884 39914 ft 439 kts 284°
2026-05-06 14:01 25.96515 47.51522 39923 ft 441 kts 284°
2026-05-06 14:02 25.98667 47.45188 39918 ft 436 kts 283°
2026-05-06 14:02 26.00800 47.38889 39918 ft 435 kts 283°
2026-05-06 14:03 26.02933 47.32585 39918 ft 436 kts 283°
2026-05-06 14:03 26.05069 47.26260 39927 ft 438 kts 283°
2026-05-06 14:04 26.07210 47.19912 39947 ft 439 kts 283°
2026-05-06 14:04 26.09348 47.13565 39937 ft 437 kts 283°
2026-05-06 14:05 26.11474 47.07236 39933 ft 436 kts 283°
2026-05-06 14:05 26.13596 47.00912 39936 ft 436 kts 283°
2026-05-06 14:06 26.15712 46.94595 39939 ft 435 kts 283°
2026-05-06 14:06 26.17821 46.88290 39939 ft 435 kts 283°
2026-05-06 14:07 26.19926 46.81985 39935 ft 434 kts 283°
2026-05-06 14:07 26.22026 46.75685 39940 ft 435 kts 283°
2026-05-06 14:08 26.24133 46.69353 39947 ft 437 kts 283°
2026-05-06 14:08 26.26245 46.62994 39959 ft 439 kts 283°
2026-05-06 14:09 26.28360 46.56619 39977 ft 438 kts 283°
2026-05-06 14:09 26.30455 46.50295 39942 ft 433 kts 282°
2026-05-06 14:10 26.32532 46.44005 39944 ft 432 kts 282°
2026-05-06 14:10 26.34611 46.37705 39947 ft 433 kts 282°
2026-05-06 14:11 26.36689 46.31396 39955 ft 434 kts 282°
2026-05-06 14:11 26.38769 46.25073 39980 ft 435 kts 282°
2026-05-06 14:12 26.40847 46.18744 39967 ft 433 kts 282°
2026-05-06 14:12 26.42911 46.12445 39961 ft 432 kts 282°
2026-05-06 14:13 26.44972 46.06146 39957 ft 432 kts 282°
2026-05-06 14:13 26.47030 45.99844 39955 ft 432 kts 282°
2026-05-06 14:14 26.48060 45.96688 39955 ft 433 kts 282°
2026-05-06 14:15 26.48557 45.95162 39955 ft 433 kts 282°
2026-05-06 14:16 26.50619 45.88830 39967 ft 434 kts 282°
2026-05-06 14:16 26.52668 45.82530 39971 ft 435 kts 282°
2026-05-06 14:17 26.54727 45.76183 39963 ft 434 kts 282°
2026-05-06 14:17 26.56783 45.69837 39962 ft 434 kts 282°
2026-05-06 14:18 26.58834 45.63496 39985 ft 434 kts 281°
2026-05-06 14:18 26.60881 45.57158 39962 ft 433 kts 281°
2026-05-06 14:19 26.62920 45.50826 39963 ft 434 kts 281°
2026-05-06 14:19 26.64969 45.44460 39964 ft 436 kts 281°
2026-05-06 14:20 26.67021 45.38071 39967 ft 437 kts 281°
2026-05-06 14:20 26.69070 45.31683 39953 ft 437 kts 281°
2026-05-06 14:21 26.71111 45.25307 39954 ft 434 kts 281°
2026-05-06 14:21 26.73136 45.18967 39947 ft 433 kts 281°
2026-05-06 14:22 26.75161 45.12616 39945 ft 434 kts 281°
2026-05-06 14:22 26.77190 45.06246 39950 ft 435 kts 281°
2026-05-06 14:23 26.79221 44.99854 39960 ft 436 kts 281°
2026-05-06 14:23 26.81248 44.93465 39952 ft 435 kts 281°
2026-05-06 14:24 26.83271 44.87077 39944 ft 435 kts 281°
2026-05-06 14:24 26.85293 44.80681 39948 ft 435 kts 281°
2026-05-06 14:25 26.87310 44.74289 39944 ft 435 kts 281°
2026-05-06 14:25 26.89323 44.67902 39944 ft 434 kts 281°
2026-05-06 14:26 26.91328 44.61527 39957 ft 434 kts 281°
2026-05-06 14:26 26.93329 44.55150 39950 ft 434 kts 280°
2026-05-06 14:27 26.95329 44.48767 39938 ft 434 kts 280°
2026-05-06 14:27 26.97326 44.42381 39947 ft 434 kts 280°
2026-05-06 14:28 26.99306 44.36040 39938 ft 433 kts 280°
2026-05-06 14:28 27.01293 44.29662 39941 ft 433 kts 280°
2026-05-06 14:29 27.03279 44.23279 39942 ft 434 kts 280°
2026-05-06 14:29 27.05264 44.16889 39949 ft 433 kts 280°
2026-05-06 14:30 27.07240 44.10511 39945 ft 432 kts 280°
2026-05-06 14:30 27.09212 44.04139 39946 ft 432 kts 280°
2026-05-06 14:31 27.11181 43.97762 39944 ft 433 kts 280°
2026-05-06 14:31 27.13150 43.91375 39948 ft 433 kts 280°
2026-05-06 14:32 27.15116 43.84987 39953 ft 433 kts 280°
2026-05-06 14:32 27.17081 43.78588 39943 ft 434 kts 280°
2026-05-06 14:33 27.19045 43.72185 39952 ft 434 kts 279°
2026-05-06 14:33 27.21007 43.65772 39955 ft 434 kts 280°
2026-05-06 14:34 27.22968 43.59352 39949 ft 435 kts 279°
2026-05-06 14:34 27.24929 43.52923 39949 ft 434 kts 279°
2026-05-06 14:35 27.26883 43.46502 39952 ft 434 kts 279°
2026-05-06 14:35 27.28832 43.40085 39959 ft 434 kts 279°
2026-05-06 14:36 27.30783 43.33651 39959 ft 435 kts 279°
2026-05-06 14:36 27.32736 43.27200 39962 ft 436 kts 279°
2026-05-06 14:37 27.34688 43.20737 39965 ft 437 kts 279°
2026-05-06 14:37 27.36632 43.14294 39968 ft 434 kts 279°
2026-05-06 14:38 27.38565 43.07868 39961 ft 433 kts 279°
2026-05-06 14:38 27.40494 43.01446 39983 ft 433 kts 279°
2026-05-06 14:39 27.42420 42.95022 39979 ft 433 kts 279°
2026-05-06 14:39 27.44345 42.88592 39980 ft 433 kts 279°
2026-05-06 14:40 27.46254 42.82201 39984 ft 434 kts 279°
2026-05-06 14:40 27.48186 42.75720 39991 ft 434 kts 279°
2026-05-06 14:41 27.50091 42.69318 39991 ft 434 kts 279°
2026-05-06 14:41 27.52007 42.62866 39992 ft 434 kts 279°
2026-05-06 14:42 27.53922 42.56405 39996 ft 435 kts 279°
2026-05-06 14:42 27.55839 42.49928 40000 ft 436 kts 279°
2026-05-06 14:43 27.57752 42.43434 40001 ft 436 kts 277°
2026-05-06 14:43 27.58796 42.36841 40003 ft 424 kts 268°
2026-05-06 14:44 27.59389 42.30208 39971 ft 425 kts 269°
2026-05-06 14:45 27.60255 42.20266 39995 ft 426 kts 269°
2026-05-06 14:45 27.60836 42.13611 40003 ft 427 kts 269°
2026-05-06 14:46 27.61313 42.08084 40006 ft 426 kts 269°
2026-05-06 14:46 27.61883 42.01452 40000 ft 425 kts 269°
2026-05-06 14:47 27.62450 41.94824 39991 ft 425 kts 269°
2026-05-06 14:47 27.63013 41.88198 39984 ft 424 kts 269°
2026-05-06 14:48 27.63574 41.81569 39984 ft 425 kts 269°
2026-05-06 14:48 27.64131 41.74937 39982 ft 426 kts 269°
2026-05-06 14:49 27.64687 41.68283 39990 ft 426 kts 269°
2026-05-06 14:49 27.65241 41.61624 39992 ft 427 kts 269°
2026-05-06 14:50 27.65791 41.54957 40016 ft 428 kts 269°
2026-05-06 14:50 27.66340 41.48292 39996 ft 424 kts 269°
2026-05-06 14:51 27.66877 41.41685 39993 ft 423 kts 268°
2026-05-06 14:51 27.67411 41.35121 39980 ft 423 kts 269°
2026-05-06 14:52 27.67944 41.28493 40002 ft 426 kts 269°
2026-05-06 14:52 27.68480 41.21825 40004 ft 427 kts 269°
2026-05-06 14:53 27.69013 41.15140 40002 ft 428 kts 269°
2026-05-06 14:53 27.69543 41.08434 40000 ft 430 kts 269°
2026-05-06 14:54 27.70072 41.01729 39994 ft 428 kts 269°
2026-05-06 14:54 27.70595 40.95043 39995 ft 427 kts 269°
2026-05-06 14:55 27.71114 40.88368 39996 ft 427 kts 269°
2026-05-06 14:55 27.71629 40.81702 39999 ft 426 kts 269°
2026-05-06 14:56 27.72140 40.75047 39997 ft 426 kts 269°
2026-05-06 14:56 27.72648 40.68388 39995 ft 425 kts 269°
2026-05-06 14:57 27.73152 40.61725 39999 ft 427 kts 269°
2026-05-06 14:57 27.73656 40.55035 40007 ft 429 kts 269°
2026-05-06 14:58 27.74158 40.48328 40012 ft 428 kts 269°
2026-05-06 14:58 27.74657 40.41635 40010 ft 426 kts 269°
2026-05-06 14:59 27.75148 40.34980 39999 ft 425 kts 269°
2026-05-06 14:59 27.75632 40.28377 40000 ft 425 kts 269°
2026-05-06 15:00 27.76117 40.21725 40016 ft 426 kts 269°
2026-05-06 15:00 27.76600 40.15047 40023 ft 427 kts 269°
2026-05-06 15:01 27.77081 40.08358 40014 ft 428 kts 269°
2026-05-06 15:01 27.77559 40.01664 40019 ft 428 kts 269°
2026-05-06 15:02 27.78036 39.94941 40007 ft 430 kts 269°
2026-05-06 15:02 27.78511 39.88205 39998 ft 431 kts 269°
2026-05-06 15:03 27.78981 39.81489 40007 ft 427 kts 269°
2026-05-06 15:03 27.79445 39.74785 40013 ft 430 kts 269°
2026-05-06 15:04 27.79912 39.68035 40010 ft 432 kts 269°
2026-05-06 15:04 27.80374 39.61281 40019 ft 431 kts 269°
2026-05-06 15:05 27.80833 39.54531 40010 ft 432 kts 269°
2026-05-06 15:05 27.81291 39.47752 40017 ft 433 kts 269°
2026-05-06 15:06 27.81744 39.40983 40014 ft 432 kts 269°
2026-05-06 15:06 27.82194 39.34227 40024 ft 431 kts 269°
2026-05-06 15:07 27.82640 39.27460 40015 ft 432 kts 269°
2026-05-06 15:07 27.83081 39.20732 40015 ft 432 kts 269°
2026-05-06 15:08 27.83522 39.13964 40003 ft 432 kts 269°
2026-05-06 15:08 27.83958 39.07193 40009 ft 434 kts 269°
2026-05-06 15:09 27.84395 39.00382 40004 ft 435 kts 269°
2026-05-06 15:09 27.84827 38.93573 40004 ft 434 kts 269°
2026-05-06 15:10 27.85257 38.86767 39999 ft 434 kts 269°
2026-05-06 15:10 27.85683 38.79957 40006 ft 435 kts 269°
2026-05-06 15:11 27.86105 38.73142 39996 ft 435 kts 269°
2026-05-06 15:11 27.86525 38.66323 39994 ft 435 kts 269°
2026-05-06 15:12 27.86942 38.59516 39998 ft 432 kts 269°
2026-05-06 15:12 27.87350 38.52765 39991 ft 430 kts 269°
2026-05-06 15:13 27.87756 38.46010 39988 ft 431 kts 269°
2026-05-06 15:13 27.88159 38.39244 39991 ft 432 kts 269°
2026-05-06 15:14 27.88560 38.32463 39990 ft 432 kts 269°
2026-05-06 15:14 27.88958 38.25675 39997 ft 433 kts 269°
2026-05-06 15:15 27.89350 38.18932 40023 ft 433 kts 269°
2026-05-06 15:15 27.89740 38.12176 39991 ft 429 kts 269°
2026-05-06 15:16 27.90122 38.05458 39986 ft 428 kts 269°
2026-05-06 15:16 27.90504 37.98737 39979 ft 429 kts 269°
2026-05-06 15:17 27.90881 37.92007 39984 ft 430 kts 269°
2026-05-06 15:17 27.91258 37.85229 39986 ft 433 kts 269°
2026-05-06 15:18 27.91634 37.78440 39988 ft 432 kts 269°
2026-05-06 15:18 27.92004 37.71661 39987 ft 432 kts 269°
2026-05-06 15:19 27.92372 37.64854 39988 ft 435 kts 269°
2026-05-06 15:19 27.92740 37.58012 39981 ft 436 kts 269°
2026-05-06 15:20 27.93103 37.51176 39980 ft 435 kts 269°
2026-05-06 15:20 27.93463 37.44346 39975 ft 435 kts 269°
2026-05-06 15:21 27.93819 37.37527 39977 ft 434 kts 269°
2026-05-06 15:21 27.94171 37.30717 39971 ft 433 kts 269°
2026-05-06 15:22 27.94519 37.23916 39967 ft 433 kts 269°
2026-05-06 15:22 27.95280 37.17141 39985 ft 438 kts 278°
2026-05-06 15:23 27.96627 37.10408 39986 ft 439 kts 278°
2026-05-06 15:23 27.97973 37.03668 39988 ft 439 kts 278°
2026-05-06 15:24 27.99315 36.96921 39975 ft 441 kts 278°
2026-05-06 15:24 28.00659 36.90158 39979 ft 440 kts 278°
2026-05-06 15:25 28.01996 36.83402 39980 ft 440 kts 278°
2026-05-06 15:25 28.03330 36.76647 39980 ft 439 kts 278°
2026-05-06 15:26 28.04658 36.69900 39975 ft 439 kts 278°
2026-05-06 15:26 28.05983 36.63159 39970 ft 438 kts 278°
2026-05-06 15:27 28.07303 36.56417 39968 ft 438 kts 278°
2026-05-06 15:27 28.08620 36.49675 39981 ft 438 kts 278°
2026-05-06 15:28 28.09934 36.42928 39978 ft 439 kts 278°
2026-05-06 15:28 28.11247 36.36172 39978 ft 439 kts 278°
2026-05-06 15:29 28.12554 36.29419 39974 ft 439 kts 278°
2026-05-06 15:29 28.13859 36.22663 39971 ft 440 kts 278°
2026-05-06 15:30 28.15164 36.15891 39975 ft 440 kts 278°
2026-05-06 15:30 28.16464 36.09121 39978 ft 440 kts 278°
2026-05-06 15:31 28.17762 36.02343 39976 ft 441 kts 278°
2026-05-06 15:31 28.19060 35.95549 39980 ft 441 kts 278°
2026-05-06 15:32 28.20782 35.86505 39975 ft 440 kts 278°
2026-05-06 15:32 28.22070 35.79717 39973 ft 440 kts 278°
2026-05-06 15:33 28.23353 35.72936 39970 ft 440 kts 278°
2026-05-06 15:33 28.24841 35.65047 39973 ft 440 kts 278°
2026-05-06 15:34 28.25911 35.59356 39971 ft 440 kts 278°
2026-05-06 15:34 28.27181 35.52595 39961 ft 438 kts 278°
2026-05-06 15:35 28.28448 35.45808 39958 ft 441 kts 278°
2026-05-06 15:35 28.29718 35.39010 39947 ft 440 kts 278°
2026-05-06 15:36 28.30981 35.32216 39952 ft 439 kts 278°
2026-05-06 15:36 28.32232 35.25470 39945 ft 438 kts 278°
2026-05-06 15:37 28.33488 35.18671 39943 ft 442 kts 278°
2026-05-06 15:37 28.34746 35.11856 39934 ft 440 kts 278°
2026-05-06 15:38 28.35986 35.05108 39932 ft 439 kts 278°
2026-05-06 15:38 28.37227 34.98338 39920 ft 438 kts 278°
2026-05-06 15:39 28.38465 34.91561 39926 ft 439 kts 278°
2026-05-06 15:39 28.39704 34.84765 39929 ft 440 kts 278°
2026-05-06 15:40 28.40941 34.77953 39935 ft 441 kts 278°
2026-05-06 15:40 28.42177 34.71133 39945 ft 441 kts 279°
2026-05-06 15:41 28.43413 34.64290 39946 ft 443 kts 279°
2026-05-06 15:41 28.44649 34.57424 39963 ft 443 kts 278°
2026-05-06 15:42 28.45878 34.50575 39974 ft 442 kts 278°
2026-05-06 15:42 28.47100 34.43750 39970 ft 439 kts 278°
2026-05-06 15:43 28.48309 34.36975 39985 ft 437 kts 278°
2026-05-06 15:43 28.49514 34.30201 39993 ft 437 kts 278°
2026-05-06 15:44 28.50716 34.23425 39991 ft 438 kts 278°
2026-05-06 15:44 28.51918 34.16628 40012 ft 439 kts 278°
2026-05-06 15:45 28.53117 34.09820 40004 ft 438 kts 278°
2026-05-06 15:45 28.54303 34.03071 39997 ft 438 kts 278°
2026-05-06 15:46 28.55493 33.96285 39994 ft 437 kts 278°
2026-05-06 15:46 28.56681 33.89481 39978 ft 440 kts 278°
2026-05-06 15:47 28.57870 33.82651 39987 ft 440 kts 278°
2026-05-06 15:47 28.59056 33.75823 39982 ft 440 kts 278°
2026-05-06 15:48 28.60238 33.68991 39986 ft 440 kts 278°
2026-05-06 15:48 28.61419 33.62157 39994 ft 440 kts 280°
2026-05-06 15:49 28.63538 33.55604 40001 ft 446 kts 296°
2026-05-06 15:49 28.67300 33.49909 40002 ft 458 kts 311°
2026-05-06 15:50 28.72332 33.45348 39998 ft 464 kts 317°
2026-05-06 15:50 28.77500 33.40966 40003 ft 463 kts 317°
2026-05-06 15:51 28.82665 33.36582 39988 ft 462 kts 317°
2026-05-06 15:51 28.87812 33.32205 39990 ft 461 kts 317°
2026-05-06 15:52 28.92951 33.27831 39982 ft 461 kts 317°
2026-05-06 15:52 28.98098 33.23445 39994 ft 462 kts 317°
2026-05-06 15:53 29.03243 33.19054 39992 ft 461 kts 317°
2026-05-06 15:53 29.08385 33.14661 39998 ft 462 kts 317°
2026-05-06 15:54 29.13487 33.10296 39998 ft 461 kts 317°
2026-05-06 15:54 29.18618 33.05900 40009 ft 461 kts 317°
2026-05-06 15:55 29.23756 33.01493 40013 ft 462 kts 317°
2026-05-06 15:55 29.28904 32.97073 40017 ft 463 kts 317°
2026-05-06 15:56 29.34056 32.92642 40022 ft 463 kts 317°
2026-05-06 15:56 29.39208 32.88205 40030 ft 464 kts 317°
2026-05-06 15:57 29.44357 32.83768 40015 ft 461 kts 317°
2026-05-06 15:57 29.49480 32.79344 40015 ft 460 kts 317°
2026-05-06 15:58 29.54595 32.74923 40026 ft 461 kts 317°
2026-05-06 15:58 29.59718 32.70489 40033 ft 461 kts 317°
2026-05-06 15:59 29.64849 32.66042 40034 ft 462 kts 317°
2026-05-06 15:59 29.69983 32.61587 40054 ft 463 kts 317°
2026-05-06 16:00 29.75125 32.57120 40038 ft 462 kts 317°
2026-05-06 16:00 29.80242 32.52667 40033 ft 460 kts 317°
2026-05-06 16:01 29.85343 32.48223 40033 ft 460 kts 317°
2026-05-06 16:01 29.90440 32.43777 40031 ft 460 kts 317°
2026-05-06 16:02 29.95552 32.39311 40042 ft 461 kts 317°
2026-05-06 16:02 30.00628 32.34872 40045 ft 461 kts 317°
2026-05-06 16:03 30.05736 32.30398 40042 ft 460 kts 317°
2026-05-06 16:03 30.10830 32.25930 40046 ft 459 kts 317°
2026-05-06 16:04 30.15909 32.21470 40068 ft 458 kts 317°
2026-05-06 16:04 30.20990 32.17002 40057 ft 459 kts 317°
2026-05-06 16:05 30.26070 32.12530 40058 ft 459 kts 317°
2026-05-06 16:05 30.31147 32.08053 40059 ft 459 kts 317°
2026-05-06 16:06 30.36228 32.03568 40064 ft 459 kts 317°
2026-05-06 16:06 30.41305 31.99080 40066 ft 459 kts 317°
2026-05-06 16:07 30.46382 31.94585 40073 ft 459 kts 317°
2026-05-06 16:07 30.51459 31.90086 40070 ft 459 kts 317°
2026-05-06 16:08 30.56522 31.85592 40071 ft 458 kts 317°
2026-05-06 16:08 30.61543 31.81129 40076 ft 458 kts 317°
2026-05-06 16:09 30.66596 31.76632 40086 ft 458 kts 317°
2026-05-06 16:09 30.71648 31.72130 40080 ft 458 kts 317°
2026-05-06 16:10 30.76696 31.67625 40085 ft 458 kts 317°
2026-05-06 16:10 30.81745 31.63112 40084 ft 458 kts 317°
2026-05-06 16:11 30.86786 31.58603 40091 ft 456 kts 317°
2026-05-06 16:11 30.91813 31.54097 40089 ft 457 kts 317°
2026-05-06 16:12 30.96854 31.49575 40086 ft 458 kts 317°
2026-05-06 16:12 31.01895 31.45046 40093 ft 457 kts 317°
2026-05-06 16:13 31.06927 31.40518 40090 ft 457 kts 317°
2026-05-06 16:13 31.11953 31.35989 40098 ft 457 kts 317°
2026-05-06 16:14 31.16973 31.31461 40093 ft 455 kts 317°
2026-05-06 16:14 31.21977 31.26939 40085 ft 455 kts 317°
2026-05-06 16:15 31.26994 31.22401 40093 ft 457 kts 317°
2026-05-06 16:15 31.31988 31.17877 40098 ft 458 kts 317°
2026-05-06 16:16 31.37031 31.13301 40103 ft 459 kts 317°
2026-05-06 16:16 31.42067 31.08727 40115 ft 457 kts 317°
2026-05-06 16:17 31.47084 31.04163 40083 ft 455 kts 317°
2026-05-06 16:17 31.52078 30.99613 40079 ft 454 kts 317°
2026-05-06 16:18 31.57075 30.95054 40100 ft 456 kts 318°
2026-05-06 16:18 31.62088 30.90475 40100 ft 457 kts 318°
2026-05-06 16:19 31.67100 30.85890 40103 ft 457 kts 318°
2026-05-06 16:19 31.72112 30.81298 40102 ft 457 kts 317°
2026-05-06 16:20 31.77124 30.76700 40097 ft 456 kts 318°
2026-05-06 16:20 31.82115 30.72116 40100 ft 454 kts 318°
2026-05-06 16:21 31.87085 30.67543 40093 ft 454 kts 318°
2026-05-06 16:21 31.92068 30.62951 40091 ft 455 kts 318°
2026-05-06 16:22 31.96215 30.59126 40101 ft 456 kts 318°
2026-05-06 16:22 32.01215 30.54508 40109 ft 457 kts 317°
2026-05-06 16:23 32.06226 30.49873 40104 ft 458 kts 317°
2026-05-06 16:23 32.11227 30.45241 40106 ft 456 kts 317°
2026-05-06 16:24 32.16207 30.40620 40105 ft 455 kts 317°
2026-05-06 16:24 32.21173 30.36007 40094 ft 454 kts 318°
2026-05-06 16:25 32.26138 30.31387 40093 ft 454 kts 317°
2026-05-06 16:25 32.31106 30.26759 40094 ft 455 kts 317°
2026-05-06 16:26 32.36075 30.22123 40120 ft 455 kts 318°
2026-05-06 16:26 32.41025 30.17500 40101 ft 451 kts 318°
2026-05-06 16:27 32.45952 30.12888 40099 ft 451 kts 318°
2026-05-06 16:27 32.50927 30.08339 40107 ft 452 kts 319°
2026-05-06 16:28 32.55941 30.03833 40103 ft 453 kts 319°
2026-05-06 16:28 32.60979 29.99342 40108 ft 453 kts 319°
2026-05-06 16:29 32.66012 29.94833 40109 ft 453 kts 319°
2026-05-06 16:29 32.71047 29.90321 40102 ft 452 kts 319°
2026-05-06 16:30 32.75213 29.86583 40101 ft 451 kts 319°
2026-05-06 16:30 32.81058 29.81326 40100 ft 451 kts 319°
2026-05-06 16:31 32.86060 29.76823 40100 ft 452 kts 319°
2026-05-06 16:31 32.91077 29.72299 40103 ft 453 kts 319°
2026-05-06 16:32 32.96104 29.67761 40108 ft 454 kts 319°
2026-05-06 16:32 33.01099 29.63243 40104 ft 453 kts 319°
2026-05-06 16:33 33.06098 29.58717 40097 ft 450 kts 319°
2026-05-06 16:34 33.13569 29.51939 40094 ft 450 kts 319°
2026-05-06 16:34 33.18552 29.47409 40094 ft 451 kts 319°
2026-05-06 16:35 33.23545 29.42865 40091 ft 451 kts 319°
2026-05-06 16:35 33.28542 29.38309 40111 ft 452 kts 319°
2026-05-06 16:36 33.33523 29.33762 40108 ft 451 kts 319°
2026-05-06 16:36 33.38495 29.29217 40100 ft 449 kts 319°
2026-05-06 16:37 33.43448 29.24681 40098 ft 449 kts 319°
2026-05-06 16:37 33.48418 29.20123 40100 ft 451 kts 319°
2026-05-06 16:38 33.53406 29.15542 40104 ft 452 kts 319°
2026-05-06 16:38 33.58399 29.10951 40111 ft 452 kts 319°
2026-05-06 16:39 33.63376 29.06366 40097 ft 450 kts 319°
2026-05-06 16:39 33.68301 29.01823 40099 ft 449 kts 319°
2026-05-06 16:40 33.73252 28.97249 40098 ft 449 kts 319°
2026-05-06 16:40 33.78203 28.92668 40101 ft 449 kts 319°
2026-05-06 16:41 33.83159 28.88076 40101 ft 450 kts 319°
2026-05-06 16:41 33.88105 28.83486 40104 ft 451 kts 319°
2026-05-06 16:42 33.93065 28.78876 40089 ft 449 kts 320°
2026-05-06 16:42 33.98006 28.74277 40089 ft 449 kts 319°
2026-05-06 16:43 34.02942 28.69675 40090 ft 449 kts 319°
2026-05-06 16:43 34.07880 28.65065 40088 ft 449 kts 320°
2026-05-06 16:44 34.12821 28.60445 40093 ft 450 kts 319°
2026-05-06 16:44 34.17766 28.55814 40089 ft 450 kts 319°
2026-05-06 16:45 34.22705 28.51182 40098 ft 449 kts 319°
2026-05-06 16:45 34.27626 28.46560 40098 ft 448 kts 319°
2026-05-06 16:46 34.32537 28.41940 40092 ft 447 kts 319°
2026-05-06 16:46 34.37446 28.37315 40090 ft 447 kts 319°
2026-05-06 16:47 34.42350 28.32686 40091 ft 448 kts 320°
2026-05-06 16:47 34.47262 28.28045 40093 ft 451 kts 320°
2026-05-06 16:48 34.52207 28.23364 40097 ft 449 kts 320°
2026-05-06 16:48 34.57109 28.18717 40094 ft 446 kts 319°
2026-05-06 16:49 34.61967 28.14105 40094 ft 446 kts 319°
2026-05-06 16:49 34.66856 28.09456 40093 ft 447 kts 319°
2026-05-06 16:50 34.71751 28.04793 40085 ft 448 kts 320°
2026-05-06 16:50 34.76676 28.00096 40091 ft 451 kts 320°
2026-05-06 16:51 34.81606 27.95386 40091 ft 450 kts 320°
2026-05-06 16:51 34.86520 27.90684 40089 ft 449 kts 320°
2026-05-06 16:52 34.91421 27.85987 40088 ft 448 kts 320°
2026-05-06 16:52 34.96321 27.81285 40086 ft 448 kts 320°
2026-05-06 16:53 35.01217 27.76578 40083 ft 448 kts 320°
2026-05-06 16:53 35.06104 27.71873 40079 ft 447 kts 320°
2026-05-06 16:54 35.10903 27.67244 40078 ft 447 kts 320°
2026-05-06 16:54 35.15786 27.62528 40077 ft 448 kts 319°
2026-05-06 16:55 35.20685 27.57789 40084 ft 450 kts 319°
2026-05-06 16:55 35.25591 27.53036 40089 ft 450 kts 319°
2026-05-06 16:56 35.30502 27.48270 40093 ft 450 kts 319°
2026-05-06 16:56 35.35412 27.43497 40093 ft 451 kts 320°
2026-05-06 16:57 35.40319 27.38720 40094 ft 448 kts 320°
2026-05-06 16:57 35.45180 27.33981 40084 ft 446 kts 320°
2026-05-06 16:58 35.50032 27.29241 40083 ft 446 kts 320°
2026-05-06 16:58 35.54888 27.24491 40081 ft 447 kts 320°
2026-05-06 16:59 35.59748 27.19730 40087 ft 447 kts 320°
2026-05-06 16:59 35.64611 27.14958 40071 ft 448 kts 320°
2026-05-06 17:00 35.69495 27.10156 40091 ft 450 kts 320°
2026-05-06 17:00 35.74370 27.05358 40097 ft 447 kts 319°
2026-05-06 17:01 35.79217 27.00577 40095 ft 446 kts 319°
2026-05-06 17:01 35.84074 26.95781 40097 ft 448 kts 319°
2026-05-06 17:02 35.88911 26.90995 40099 ft 450 kts 319°
2026-05-06 17:02 35.93793 26.86158 40093 ft 450 kts 319°
2026-05-06 17:03 35.98674 26.81314 40083 ft 451 kts 319°
2026-05-06 17:03 36.03543 26.76473 40083 ft 448 kts 319°
2026-05-06 17:04 36.08396 26.71641 40097 ft 447 kts 319°
2026-05-06 17:04 36.13238 26.66811 40085 ft 448 kts 319°
2026-05-06 17:05 36.18086 26.61969 40083 ft 448 kts 319°
2026-05-06 17:05 36.22934 26.57117 40084 ft 448 kts 319°
2026-05-06 17:06 36.27790 26.52250 40084 ft 450 kts 319°
2026-05-06 17:06 36.32657 26.47363 40092 ft 450 kts 319°
2026-05-06 17:07 36.37519 26.42474 40094 ft 450 kts 319°
2026-05-06 17:07 36.42380 26.37578 40095 ft 450 kts 319°
2026-05-06 17:08 36.47242 26.32672 40091 ft 450 kts 319°
2026-05-06 17:08 36.52098 26.27765 40093 ft 450 kts 319°
2026-05-06 17:09 36.56134 26.23679 40099 ft 450 kts 320°
2026-05-06 17:09 36.61093 26.18916 40090 ft 450 kts 320°
2026-05-06 17:10 36.66035 26.14136 40088 ft 450 kts 321°
2026-05-06 17:10 36.70988 26.09385 40085 ft 449 kts 321°
2026-05-06 17:11 36.75921 26.04616 40082 ft 449 kts 321°
2026-05-06 17:11 36.80862 25.99848 40080 ft 449 kts 321°
2026-05-06 17:12 36.85803 25.95063 40090 ft 450 kts 321°
2026-05-06 17:12 36.90757 25.90262 40085 ft 451 kts 321°
2026-05-06 17:13 36.95716 25.85447 40086 ft 452 kts 321°
2026-05-06 17:13 37.00643 25.80655 40086 ft 451 kts 321°
2026-05-06 17:14 37.05595 25.75829 40093 ft 451 kts 321°
2026-05-06 17:14 37.10545 25.70998 40089 ft 451 kts 321°
2026-05-06 17:15 37.15490 25.66163 40085 ft 450 kts 321°
2026-05-06 17:15 37.20417 25.61338 40071 ft 450 kts 321°
2026-05-06 17:16 37.25363 25.56487 40071 ft 452 kts 321°
2026-05-06 17:16 37.30321 25.51614 40076 ft 453 kts 321°
2026-05-06 17:17 37.35277 25.46736 40075 ft 453 kts 321°
2026-05-06 17:17 37.40230 25.41851 40076 ft 453 kts 321°
2026-05-06 17:18 37.45177 25.36965 40080 ft 451 kts 321°
2026-05-06 17:18 37.50102 25.32092 40063 ft 450 kts 321°
2026-05-06 17:19 37.55039 25.27198 40074 ft 454 kts 321°
2026-05-06 17:19 37.60004 25.22268 40078 ft 455 kts 321°
2026-05-06 17:20 37.64970 25.17329 40075 ft 454 kts 321°
2026-05-06 17:20 37.69927 25.12390 40081 ft 454 kts 321°
2026-05-06 17:21 37.74833 25.07493 40072 ft 451 kts 320°
2026-05-06 17:21 37.79749 25.02578 40068 ft 450 kts 320°
2026-05-06 17:22 37.84673 24.97646 40064 ft 453 kts 320°
2026-05-06 17:22 37.89633 24.92669 40071 ft 456 kts 320°
2026-05-06 17:23 37.94596 24.87680 40075 ft 455 kts 320°
2026-05-06 17:23 37.99554 24.82688 40075 ft 455 kts 320°
2026-05-06 17:24 38.04502 24.77696 40068 ft 454 kts 320°
2026-05-06 17:24 38.09443 24.72703 40068 ft 454 kts 320°
2026-05-06 17:25 38.14375 24.67710 40064 ft 453 kts 320°
2026-05-06 17:25 38.19298 24.62718 40059 ft 453 kts 320°
2026-05-06 17:26 38.24214 24.57724 40071 ft 452 kts 320°
2026-05-06 17:26 38.29120 24.52730 40069 ft 451 kts 320°
2026-05-06 17:27 38.34022 24.47731 40069 ft 452 kts 320°
2026-05-06 17:27 38.38931 24.42717 40070 ft 453 kts 320°
2026-05-06 17:28 38.43861 24.37673 40059 ft 455 kts 320°
2026-05-06 17:28 38.48812 24.32598 40063 ft 457 kts 320°
2026-05-06 17:29 38.53764 24.27513 40061 ft 456 kts 320°
2026-05-06 17:29 38.58655 24.22480 40055 ft 453 kts 320°
2026-05-06 17:30 38.63559 24.17426 40045 ft 453 kts 320°
2026-05-06 17:30 38.68467 24.12358 40050 ft 454 kts 320°
2026-05-06 17:31 38.73387 24.07269 40049 ft 455 kts 320°
2026-05-06 17:31 38.78321 24.02156 40046 ft 458 kts 320°
2026-05-06 17:32 38.83264 23.97024 40060 ft 456 kts 320°
2026-05-06 17:32 38.88166 23.91925 40055 ft 454 kts 320°
2026-05-06 17:33 38.93077 23.86808 40046 ft 453 kts 320°
2026-05-06 17:33 38.97980 23.81689 40041 ft 455 kts 320°
2026-05-06 17:34 39.02896 23.76547 40041 ft 456 kts 320°
2026-05-06 17:34 39.07826 23.71382 40038 ft 458 kts 319°
2026-05-06 17:35 39.12750 23.66212 40027 ft 456 kts 319°
2026-05-06 17:35 39.17658 23.61049 40018 ft 455 kts 319°
2026-05-06 17:36 39.25009 23.53301 40018 ft 454 kts 319°
2026-05-06 17:36 39.29898 23.48134 40017 ft 454 kts 319°
2026-05-06 17:37 39.34777 23.42970 40036 ft 454 kts 319°
2026-05-06 17:37 39.39676 23.37773 40036 ft 457 kts 319°
2026-05-06 17:38 39.44590 23.32552 40051 ft 458 kts 319°
2026-05-06 17:38 39.49476 23.27351 40048 ft 457 kts 319°
2026-05-06 17:39 39.54383 23.22117 40043 ft 457 kts 319°
2026-05-06 17:39 39.59288 23.16875 40039 ft 457 kts 319°
2026-05-06 17:40 39.64186 23.11631 40047 ft 456 kts 319°
2026-05-06 17:40 39.69076 23.06385 40038 ft 456 kts 319°
2026-05-06 17:41 39.73965 23.01131 40037 ft 457 kts 319°
2026-05-06 17:41 39.78863 22.95857 40039 ft 457 kts 319°
2026-05-06 17:42 39.83762 22.90572 40044 ft 458 kts 319°
2026-05-06 17:42 39.88665 22.85271 40042 ft 458 kts 319°
2026-05-06 17:43 39.93556 22.79976 40031 ft 456 kts 319°
2026-05-06 17:43 39.98384 22.74736 40021 ft 455 kts 318°
2026-05-06 17:44 40.03261 22.69434 40025 ft 457 kts 318°
2026-05-06 17:44 40.08154 22.64105 40032 ft 459 kts 318°
2026-05-06 17:45 40.13053 22.58758 40035 ft 458 kts 318°
2026-05-06 17:45 40.17932 22.53423 40032 ft 456 kts 318°
2026-05-06 17:46 40.22785 22.48106 40023 ft 455 kts 318°
2026-05-06 17:46 40.27567 22.42857 40025 ft 456 kts 318°
2026-05-06 17:47 40.32466 22.37469 40027 ft 457 kts 318°
2026-05-06 17:47 40.37346 22.32091 40030 ft 458 kts 318°
2026-05-06 17:48 40.42229 22.26699 40029 ft 459 kts 318°
2026-05-06 17:48 40.47106 22.21304 40030 ft 458 kts 318°
2026-05-06 17:49 40.51975 22.15907 40028 ft 458 kts 318°
2026-05-06 17:49 40.56841 22.10504 40032 ft 458 kts 317°
2026-05-06 17:50 40.61699 22.05095 40031 ft 458 kts 317°
2026-05-06 17:50 40.66554 21.99683 40033 ft 457 kts 317°
2026-05-06 17:51 40.71398 21.94271 40035 ft 457 kts 317°
2026-05-06 17:51 40.76249 21.88839 40040 ft 458 kts 317°
2026-05-06 17:52 40.81112 21.83385 40041 ft 459 kts 317°
2026-05-06 17:52 40.85963 21.77933 40038 ft 458 kts 317°
2026-05-06 17:53 40.90770 21.72520 40034 ft 456 kts 317°
2026-05-06 17:53 40.95594 21.67081 40034 ft 455 kts 317°
2026-05-06 17:54 41.00423 21.61670 40029 ft 454 kts 317°
2026-05-06 17:54 41.05239 21.56241 40028 ft 455 kts 317°
2026-05-06 17:55 41.10067 21.50797 40032 ft 456 kts 317°
2026-05-06 17:55 41.14906 21.45327 40034 ft 457 kts 317°
2026-05-06 17:56 41.19744 21.39848 40037 ft 456 kts 317°
2026-05-06 17:56 41.24567 21.34374 40030 ft 456 kts 317°
2026-05-06 17:57 41.29380 21.28902 40027 ft 455 kts 317°
2026-05-06 17:57 41.34188 21.23423 40030 ft 455 kts 317°
2026-05-06 17:58 41.38994 21.17935 40030 ft 455 kts 317°
2026-05-06 17:58 41.42985 21.13371 40043 ft 455 kts 316°
2026-05-06 17:59 41.47776 21.07880 40040 ft 454 kts 316°
2026-05-06 17:59 41.52562 21.02383 40041 ft 454 kts 316°
2026-05-06 18:00 41.57350 20.96875 40051 ft 454 kts 316°
2026-05-06 18:00 41.62129 20.91364 40049 ft 453 kts 316°
2026-05-06 18:01 41.66901 20.85851 40056 ft 454 kts 316°
2026-05-06 18:01 41.71676 20.80323 40064 ft 455 kts 316°
2026-05-06 18:02 41.76462 20.74771 40062 ft 455 kts 316°
2026-05-06 18:02 41.81249 20.69207 40065 ft 455 kts 316°
2026-05-06 18:03 41.86028 20.63640 40071 ft 455 kts 316°
2026-05-06 18:03 41.90798 20.58073 40077 ft 454 kts 316°
2026-05-06 18:04 41.95554 20.52510 40076 ft 453 kts 316°
2026-05-06 18:04 42.00305 20.46942 40071 ft 453 kts 316°
2026-05-06 18:05 42.05071 20.41344 40078 ft 456 kts 316°
2026-05-06 18:05 42.09846 20.35725 40076 ft 456 kts 316°
2026-05-06 18:06 42.14619 20.30095 40071 ft 456 kts 316°
2026-05-06 18:06 42.19356 20.24497 40067 ft 456 kts 316°
2026-05-06 18:07 42.24123 20.18851 40060 ft 456 kts 316°
2026-05-06 18:07 42.28917 20.13163 40054 ft 456 kts 315°
2026-05-06 18:08 42.33628 20.07561 40054 ft 453 kts 315°
2026-05-06 18:08 42.38344 20.01939 40063 ft 452 kts 315°
2026-05-06 18:09 42.43069 19.96297 40064 ft 455 kts 315°
2026-05-06 18:09 42.47814 19.90620 40081 ft 455 kts 315°
2026-05-06 18:10 42.52569 19.84916 40082 ft 457 kts 315°
2026-05-06 18:10 42.57328 19.79198 40080 ft 456 kts 315°
2026-05-06 18:11 42.62054 19.73506 40082 ft 453 kts 315°
2026-05-06 18:11 42.66769 19.67815 40067 ft 453 kts 315°
2026-05-06 18:12 42.71476 19.62123 40076 ft 453 kts 315°
2026-05-06 18:12 42.76194 19.56403 40068 ft 454 kts 315°
2026-05-06 18:13 42.80907 19.50681 40075 ft 454 kts 315°
2026-05-06 18:13 42.85612 19.44953 40077 ft 453 kts 314°
2026-05-06 18:14 42.90293 19.39244 40065 ft 451 kts 314°
2026-05-06 18:14 42.94966 19.33531 40070 ft 451 kts 314°
2026-05-06 18:15 42.99649 19.27794 40062 ft 454 kts 314°
2026-05-06 18:15 43.04353 19.22021 40067 ft 455 kts 314°
2026-05-06 18:16 43.09053 19.16238 40055 ft 455 kts 314°
2026-05-06 18:16 43.13726 19.10478 40055 ft 455 kts 314°
2026-05-06 18:17 43.18421 19.04677 40043 ft 454 kts 314°
2026-05-06 18:17 43.23114 18.98865 40046 ft 455 kts 314°
2026-05-06 18:18 43.27806 18.93043 40037 ft 454 kts 314°
2026-05-06 18:18 43.32489 18.87219 40036 ft 455 kts 314°
2026-05-06 18:19 43.37175 18.81380 40036 ft 454 kts 314°
2026-05-06 18:19 43.41851 18.75540 40039 ft 455 kts 313°
2026-05-06 18:20 43.46544 18.69663 40036 ft 456 kts 313°
2026-05-06 18:20 43.51234 18.63782 40034 ft 456 kts 313°
2026-05-06 18:21 43.55915 18.57895 40023 ft 455 kts 313°
2026-05-06 18:21 43.60595 18.51999 40023 ft 455 kts 313°
2026-05-06 18:22 43.65253 18.46118 40028 ft 452 kts 313°
2026-05-06 18:22 43.69887 18.40251 40030 ft 453 kts 313°
2026-05-06 18:23 43.74543 18.34345 40027 ft 456 kts 313°
2026-05-06 18:23 43.79208 18.28409 40029 ft 455 kts 313°
2026-05-06 18:24 43.83833 18.22425 40026 ft 456 kts 313°
2026-05-06 18:24 43.88469 18.16454 40024 ft 454 kts 313°
2026-05-06 18:25 43.93054 18.10516 40026 ft 454 kts 312°
2026-05-06 18:25 43.97723 18.04462 40002 ft 458 kts 313°
2026-05-06 18:26 44.02346 17.98458 40015 ft 458 kts 312°
2026-05-06 18:26 44.06980 17.92420 39994 ft 456 kts 312°
2026-05-06 18:27 44.11607 17.86378 39989 ft 457 kts 312°
2026-05-06 18:27 44.16237 17.80323 39988 ft 457 kts 312°
2026-05-06 18:28 44.20867 17.74249 40004 ft 458 kts 313°
2026-05-06 18:28 44.25523 17.68130 39987 ft 461 kts 313°
2026-05-06 18:29 44.30181 17.61995 39988 ft 461 kts 312°
2026-05-06 18:29 44.34846 17.55835 39982 ft 461 kts 312°
2026-05-06 18:30 44.39495 17.49683 39978 ft 460 kts 312°
2026-05-06 18:30 44.44134 17.43529 39974 ft 460 kts 312°
2026-05-06 18:31 44.48777 17.37356 39965 ft 460 kts 312°
2026-05-06 18:31 44.53413 17.31179 39957 ft 460 kts 312°
2026-05-06 18:32 44.58040 17.24999 39953 ft 459 kts 312°
2026-05-06 18:32 44.62665 17.18807 39940 ft 460 kts 312°
2026-05-06 18:33 44.67299 17.12588 39952 ft 462 kts 312°
2026-05-06 18:33 44.71947 17.06338 39939 ft 463 kts 312°
2026-05-06 18:34 44.76563 17.00115 39936 ft 462 kts 312°
2026-05-06 18:34 44.81231 16.93807 39951 ft 462 kts 312°
2026-05-06 18:35 44.85841 16.87562 39931 ft 464 kts 312°
2026-05-06 18:35 44.90490 16.81252 39938 ft 464 kts 312°
2026-05-06 18:36 44.95142 16.74919 39935 ft 466 kts 312°
2026-05-06 18:36 44.99805 16.68560 39940 ft 466 kts 312°
2026-05-06 18:37 45.03713 16.63216 39935 ft 467 kts 312°
2026-05-06 18:37 45.09145 16.55772 39939 ft 468 kts 312°
2026-05-06 18:38 45.13809 16.49365 39932 ft 466 kts 312°
2026-05-06 18:38 45.18450 16.42972 39932 ft 465 kts 311°
2026-05-06 18:39 45.23089 16.36567 39937 ft 467 kts 311°
2026-05-06 18:40 45.30080 16.26887 39936 ft 468 kts 311°
2026-05-06 18:40 45.34736 16.20420 39933 ft 467 kts 311°
2026-05-06 18:41 45.39376 16.13960 39925 ft 466 kts 311°
2026-05-06 18:41 45.44006 16.07499 39917 ft 467 kts 311°
2026-05-06 18:42 45.48655 16.00991 39919 ft 469 kts 311°
2026-05-06 18:42 45.53311 15.94464 39936 ft 470 kts 311°
2026-05-06 18:43 45.57966 15.87918 39921 ft 470 kts 311°
2026-05-06 18:43 45.62610 15.81372 39926 ft 469 kts 311°
2026-05-06 18:44 45.67248 15.74819 39930 ft 469 kts 311°
2026-05-06 18:44 45.71893 15.68241 39922 ft 470 kts 311°
2026-05-06 18:45 45.75752 15.62761 39923 ft 471 kts 311°
2026-05-06 18:45 45.80398 15.56151 39921 ft 470 kts 311°
2026-05-06 18:46 45.85033 15.49540 39919 ft 470 kts 310°
2026-05-06 18:46 45.89660 15.42924 39922 ft 469 kts 310°
2026-05-06 18:47 45.94278 15.36303 39915 ft 469 kts 310°
2026-05-06 18:47 45.98897 15.29665 39920 ft 470 kts 310°
2026-05-06 18:48 46.03519 15.23006 39923 ft 471 kts 310°
2026-05-06 18:48 46.08155 15.16310 39927 ft 472 kts 310°
2026-05-06 18:49 46.12776 15.09619 39927 ft 471 kts 310°
2026-05-06 18:49 46.17400 15.02907 39919 ft 472 kts 310°
2026-05-06 18:50 46.22024 14.96177 39922 ft 472 kts 310°
2026-05-06 18:50 46.26642 14.89440 39920 ft 473 kts 310°
2026-05-06 18:51 46.31264 14.82679 39918 ft 472 kts 310°
2026-05-06 18:51 46.35878 14.75912 39917 ft 473 kts 310°
2026-05-06 18:52 46.40460 14.69175 39916 ft 472 kts 310°
2026-05-06 18:52 46.45089 14.62427 39908 ft 474 kts 315°
2026-05-06 18:53 46.50264 14.56388 39904 ft 479 kts 316°
2026-05-06 18:53 46.55458 14.50315 39890 ft 480 kts 316°
2026-05-06 18:54 46.60672 14.44242 39894 ft 480 kts 316°
2026-05-06 18:54 46.65867 14.38146 39889 ft 480 kts 316°
2026-05-06 18:55 46.71069 14.32045 39882 ft 481 kts 316°
2026-05-06 18:55 46.76287 14.25901 39886 ft 482 kts 316°
2026-05-06 18:56 46.81504 14.19747 39886 ft 482 kts 316°
2026-05-06 18:56 46.86721 14.13573 39887 ft 483 kts 316°
2026-05-06 18:57 46.91916 14.07416 39109 ft 486 kts 316°
2026-05-06 18:57 46.94585 14.04233 37775 ft 500 kts 315°
2026-05-06 18:57 46.97284 14.01024 37000 ft 498 kts 315°
2026-05-06 18:57 46.99964 13.97843 36251 ft 494 kts 315°
2026-05-06 18:58 47.02625 13.94668 35524 ft 492 kts 314°
2026-05-06 18:58 47.05278 13.91488 34820 ft 494 kts 314°
2026-05-06 18:58 47.07954 13.88281 34130 ft 499 kts 314°
2026-05-06 18:58 47.10655 13.85050 33387 ft 501 kts 314°
2026-05-06 18:59 47.13350 13.81825 32598 ft 499 kts 314°
2026-05-06 18:59 47.16026 13.78613 31851 ft 494 kts 314°
2026-05-06 18:59 47.18666 13.75434 31128 ft 489 kts 314°
2026-05-06 18:59 47.21284 13.72281 30451 ft 484 kts 313°
2026-05-06 19:00 47.23876 13.69154 29682 ft 480 kts 314°
2026-05-06 19:00 47.26443 13.66055 28861 ft 475 kts 314°
2026-05-06 19:00 47.28985 13.62980 28048 ft 470 kts 314°
2026-05-06 19:00 47.31498 13.59938 27265 ft 465 kts 314°
2026-05-06 19:01 47.33985 13.56923 26475 ft 461 kts 314°
2026-05-06 19:01 47.36443 13.53940 25742 ft 455 kts 315°
2026-05-06 19:01 47.38872 13.50989 25018 ft 450 kts 315°
2026-05-06 19:01 47.41280 13.48057 24309 ft 446 kts 315°
2026-05-06 19:02 47.43664 13.45152 23606 ft 442 kts 315°
2026-05-06 19:02 47.46024 13.42274 22867 ft 439 kts 315°
2026-05-06 19:02 47.48337 13.39450 22066 ft 435 kts 315°
2026-05-06 19:02 47.50656 13.36615 21290 ft 431 kts 315°
2026-05-06 19:03 47.52954 13.33803 20530 ft 427 kts 315°
2026-05-06 19:03 47.55230 13.31021 19803 ft 423 kts 316°
2026-05-06 19:03 47.57510 13.28286 19084 ft 421 kts 316°
2026-05-06 19:03 47.59773 13.25571 18367 ft 416 kts 316°
2026-05-06 19:04 47.61999 13.22872 17599 ft 411 kts 316°
2026-05-06 19:04 47.64198 13.20197 16814 ft 406 kts 316°
2026-05-06 19:04 47.66369 13.17563 16058 ft 401 kts 316°
2026-05-06 19:04 47.68515 13.14961 15332 ft 396 kts 316°
2026-05-06 19:05 47.70627 13.12394 14750 ft 388 kts 316°
2026-05-06 19:05 47.72687 13.09890 14254 ft 377 kts 316°
2026-05-06 19:05 47.74688 13.07450 13838 ft 366 kts 315°
2026-05-06 19:05 47.76607 13.05112 13847 ft 352 kts 315°
2026-05-06 19:06 47.78497 13.02797 13851 ft 354 kts 315°
2026-05-06 19:06 47.80401 13.00463 13848 ft 355 kts 315°
2026-05-06 19:06 47.82315 12.98126 13861 ft 356 kts 315°
2026-05-06 19:06 47.84231 12.95782 13863 ft 356 kts 315°
2026-05-06 19:07 47.86143 12.93439 13871 ft 356 kts 315°
2026-05-06 19:07 47.88055 12.91092 13875 ft 357 kts 315°
2026-05-06 19:07 47.89954 12.88760 13550 ft 353 kts 315°
2026-05-06 19:07 47.91855 12.86422 12874 ft 354 kts 315°
2026-05-06 19:08 47.93743 12.84099 12353 ft 350 kts 315°
2026-05-06 19:08 47.95530 12.81699 11806 ft 341 kts 304°
2026-05-06 19:08 47.96819 12.78786 11192 ft 337 kts 297°
2026-05-06 19:08 47.98028 12.75799 10673 ft 334 kts 296°
2026-05-06 19:09 47.99204 12.72815 10171 ft 332 kts 296°
2026-05-06 19:09 48.00375 12.69878 9884 ft 325 kts 297°
2026-05-06 19:09 48.01526 12.67016 9881 ft 317 kts 296°
2026-05-06 19:09 48.02623 12.64284 9868 ft 295 kts 296°
2026-05-06 19:10 48.03653 12.61697 9867 ft 286 kts 296°
2026-05-06 19:10 48.04661 12.59154 9867 ft 284 kts 296°
2026-05-06 19:10 48.05669 12.56619 9869 ft 284 kts 296°
2026-05-06 19:10 48.06673 12.54098 9633 ft 282 kts 296°
2026-05-06 19:11 48.07719 12.51607 9323 ft 282 kts 299°
2026-05-06 19:11 48.08824 12.49199 9081 ft 280 kts 300°
2026-05-06 19:11 48.09893 12.46789 8807 ft 276 kts 296°
2026-05-06 19:11 48.10976 12.44439 8472 ft 279 kts 313°
2026-05-06 19:12 48.12689 12.43012 8195 ft 285 kts 334°
2026-05-06 19:12 48.14570 12.42074 8031 ft 283 kts 339°
2026-05-06 19:12 48.16466 12.41248 8029 ft 286 kts 339°
2026-05-06 19:12 48.18391 12.40431 8031 ft 288 kts 340°
2026-05-06 19:13 48.20284 12.39636 8020 ft 279 kts 340°
2026-05-06 19:13 48.22088 12.38888 8031 ft 258 kts 340°
2026-05-06 19:13 48.23819 12.38170 8031 ft 254 kts 339°
2026-05-06 19:13 48.25493 12.37470 8022 ft 252 kts 339°
2026-05-06 19:14 48.27185 12.36759 8018 ft 254 kts 339°
2026-05-06 19:14 48.28958 12.36003 8008 ft 278 kts 339°
2026-05-06 19:14 48.30760 12.35243 7630 ft 257 kts 339°
2026-05-06 19:14 48.32480 12.34522 7268 ft 257 kts 339°
2026-05-06 19:15 48.34183 12.33809 6792 ft 251 kts 339°
2026-05-06 19:15 48.35706 12.32737 6270 ft 235 kts 311°
2026-05-06 19:15 48.36588 12.30764 5752 ft 224 kts 294°
2026-05-06 19:15 48.37254 12.28676 5254 ft 219 kts 291°
2026-05-06 19:16 48.37674 12.26559 5008 ft 204 kts 276°
2026-05-06 19:16 48.37794 12.24437 5007 ft 206 kts 269°
2026-05-06 19:16 48.37689 12.22288 5014 ft 206 kts 265°
2026-05-06 19:16 48.37531 12.20138 5014 ft 207 kts 264°
2026-05-06 19:17 48.37367 12.18021 5003 ft 195 kts 264°
2026-05-06 19:17 48.37219 12.16110 4980 ft 173 kts 264°
2026-05-06 19:17 48.37085 12.14394 4986 ft 157 kts 264°
2026-05-06 19:17 48.36962 12.12801 4992 ft 154 kts 264°
2026-05-06 19:18 48.36838 12.11208 4985 ft 152 kts 265°
2026-05-06 19:18 48.36717 12.09635 5001 ft 153 kts 265°
2026-05-06 19:18 48.36594 12.08045 5001 ft 153 kts 265°
2026-05-06 19:18 48.36471 12.06452 4931 ft 155 kts 265°
2026-05-06 19:19 48.36347 12.04846 4742 ft 153 kts 265°
2026-05-06 19:19 48.36230 12.03289 4533 ft 148 kts 266°
2026-05-06 19:19 48.36114 12.01753 4332 ft 148 kts 265°
2026-05-06 19:19 48.35997 12.00225 4133 ft 149 kts 265°
2026-05-06 19:20 48.35878 11.98671 3932 ft 149 kts 265°
2026-05-06 19:20 48.35759 11.97127 3730 ft 149 kts 265°
2026-05-06 19:20 48.35639 11.95578 3530 ft 149 kts 265°
2026-05-06 19:20 48.35520 11.94030 3331 ft 149 kts 265°
2026-05-06 19:21 48.35402 11.92482 3138 ft 149 kts 265°
2026-05-06 19:21 48.35285 11.90948 2930 ft 144 kts 264°
2026-05-06 19:21 48.35179 11.89572 2731 ft 124 kts 264°
2026-05-06 19:21 48.35084 11.88309 2557 ft 120 kts 263°
2026-05-06 19:22 48.34985 11.87079 2383 ft 118 kts 263°
2026-05-06 19:22 48.34896 11.85839 2180 ft 120 kts 261°
2026-05-06 19:22 48.34808 11.84628 2119 ft 117 kts 261°
2026-05-06 19:22 48.34699 11.83370 1980 ft 121 kts 262°
2026-05-06 19:23 48.34598 11.82060 1765 ft 131 kts 261°
2026-05-06 19:23 48.34503 11.80756 1583 ft 121 kts 262°
2026-05-06 19:23 48.34415 11.79560 1486 ft 97 kts 263°
2026-05-06 19:23 48.34358 11.78862 1483 ft 47 kts 264°
2026-05-06 19:24 48.34324 11.78423 1485 ft 37 kts 263°
2026-05-06 19:24 48.34309 11.78117 1478 ft 26 kts 276°
2026-05-06 19:24 48.34349 11.77883 1482 ft 21 kts 291°
2026-05-06 19:24 48.34402 11.77693 1486 ft 18 kts 294°
2026-05-06 19:25 48.34450 11.77528 1477 ft 17 kts 293°
2026-05-06 19:25 48.34528 11.77439 1482 ft 14 kts 349°
2026-05-06 19:25 48.34616 11.77448 1481 ft 10 kts 44°
2026-05-06 19:25 48.34637 11.77548 1480 ft 11 kts 83°
2026-05-06 19:26 48.34646 11.77662 1485 ft 11 kts 82°
2026-05-06 19:26 48.34654 11.77786 1483 ft 12 kts 83°
2026-05-06 19:26 48.34686 11.77883 1482 ft 9 kts 21°
2026-05-06 19:26 48.34749 11.77887 1489 ft 10 kts 356°
2026-05-06 19:27 48.34783 11.77881 1477 ft 0 kts 353°
2026-05-06 19:27 48.34783 11.77882 1477 ft 0 kts 353°
2026-05-06 19:29 48.34783 11.77881 1491 ft 1 kts 353°
2026-05-06 19:29 48.34796 11.77879 1491 ft 3 kts 353°
2026-05-06 19:29 48.34827 11.77874 1482 ft 7 kts 353°
2026-05-06 19:29 48.34885 11.77863 1485 ft 9 kts 353°
2026-05-06 19:30 48.34953 11.77851 1482 ft 10 kts 353°
2026-05-06 19:30 48.35029 11.77838 1480 ft 11 kts 354°
2026-05-06 19:30 48.35112 11.77824 1489 ft 13 kts 354°
2026-05-06 19:30 48.35177 11.77874 1488 ft 10 kts 68°
2026-05-06 19:31 48.35189 11.77979 1487 ft 10 kts 84°
2026-05-06 19:31 48.35197 11.78090 1480 ft 11 kts 84°
2026-05-06 19:31 48.35128 11.78198 1480 ft 9 kts 171°
2026-05-06 19:32 48.35063 11.78210 1483 ft 10 kts 172°
2026-05-06 19:32 48.34992 11.78223 1477 ft 11 kts 174°
2026-05-06 19:32 48.34966 11.78227 1486 ft 0 kts 174°
2026-05-06 19:34 48.34953 11.78236 1483 ft 1 kts 143°
2026-05-06 19:34 48.34946 11.78267 1482 ft 6 kts 98°
2026-05-06 19:34 48.34945 11.78335 1487 ft 7 kts 84°
2026-05-06 19:35 48.34947 11.78362 1489 ft 0 kts 82°